TIME,DELAY(SENSOR),PRES,T(CTD),SAL,OXYGEN,RAWTEMP,T(OPTODE),TCPHASE,FLUOR,BETA(BETA700),BETA(BETA412),BETA(BETA440),CDOM,C(CSC),ED(ED412.40),ED(ED444.00),ED(ED489.70),ED(ED554.30),LU(LU411.80),LU(LU443.40),LU(LU489.60),LU(LU554.10),COMP,TILTX,TILTX(TILTY),CHECK
1360532455,5807,497.0299987792969000,6.3523998260498050,34.1534996032714840,67.3751068115234400,607.8120727539062000,6.3316149711608890,50.5558280944824200,52,102,87,80,80,14918,2147752064,2147426432,2148006427,2147870921,2147632265,2147072576,2148247542,2147200118,2197,4,13,31306
1360532586,5811,487.1099853515625000,6.5107002258300780,34.1157989501953100,75.2225189208984400,603.1881103515625000,6.4812321662902830,49.5251388549804700,51,103,87,80,80,14919,2147751314,2147424000,2148008292,2147872969,2147631972,2147071204,2148245760,2147201014,2623,4,13,42668
1360532750,5807,475.7300109863281000,6.6371998786926270,34.1100997924804700,84.8270263671875000,598.7357177734375000,6.6251029968261720,48.3346595764160160,52,103,90,81,78,14918,2147748443,2147424329,2148005165,2147871917,2147629138,2147070025,2148243730,2147205156,2751,4,13,24528
1360532885,5809,464.2799987792969000,6.8910999298095700,34.1049995422363300,92.3437728881836000,590.7523803710938000,6.8825931549072270,47.3719291687011700,51,102,88,80,79,14919,2147751424,2147424694,2148003867,2147871862,2147629028,2147078244,2148247277,2147202441,1625,4,13,47617
1360532994,5809,452.8399963378906000,7.0777997970581055,34.1055984497070300,99.0508575439453100,585.3264160156250000,7.0572638511657715,46.5659790039062500,51,104,88,80,77,14915,2147746386,2147424000,2148005421,2147872365,2147628269,2147077211,2148239524,2147202331,1565,4,13,17583
1360533092,5808,441.6600036621094000,7.4207000732421875,34.0973014831543000,107.4082031250000000,573.2653808593750000,7.4445648193359375,45.5056114196777340,50,104,87,79,77,14915,2147747008,2147423780,2148002889,2147875931,2147628845,2147075328,2148242249,2147201572,1726,3,13,10129
1360533209,5809,429.4400024414062500,7.7077999114990230,34.1062011718750000,115.0143966674804700,565.4304809570312000,7.6954669952392580,44.6206893920898440,51,103,87,80,76,14913,2147746276,2147422884,2148005961,2147870902,2147625792,2147079734,2148241307,2147202102,2003,4,13,29180
1360533340,5808,418.0700073242187500,8.0676002502441400,34.1068000793457000,123.2074966430664000,554.0902709960938000,8.0576820373535160,43.6472396850585940,50,104,89,80,76,14914,2147744292,2147422070,2148005174,2147870939,2147624704,2147087442,2148240603,2147202139,2951,4,13,5601
1360533473,5809,408.2600097656250000,8.2785997390747070,34.1165008544921900,127.7073974609375000,547.7139892578125000,8.2608757019042970,43.1241111755371100,50,105,88,80,75,14912,2147742272,2147424338,2148006665,2147871616,2147622509,2147088292,2148239149,2147203821,1941,4,13,25885
1360533659,5808,397.6900024414062500,8.5244998931884770,34.1026000976562500,137.6990051269531200,540.0961303710938000,8.5031967163085940,42.1012687683105500,50,104,87,80,76,14914,2147742089,2147425142,2148003437,2147871945,2147620406,2147085632,2148235885,2147206116,1266,3,13,52493
1360533889,5807,385.8900146484375000,8.8752002716064450,34.0997009277343750,153.9846954345703000,528.8480224609375000,8.8601474761962890,40.5536994934082000,50,103,88,80,73,14914,2147741019,2147423762,2147999917,2147871241,2147614866,2147088886,2148231222,2147202816,3273,4,13,33691
1360534097,5807,372.2500000000000000,9.3145999908447270,34.0955009460449200,167.9308013916015600,514.9915771484375000,9.2985343933105470,39.2466392517089840,50,105,87,81,73,14913,2147739410,2147426852,2148006582,2147875026,2147616064,2147093595,2148226834,2147203510,2034,3,13,42570
1360534221,5810,360.7399902343750000,9.6464004516601560,34.1034011840820300,177.9940032958984400,503.8507995605469000,9.6499805450439450,38.3350181579589840,50,104,86,79,72,14912,2147736969,2147427675,2148005961,2147874084,2147613577,2147094610,2148223926,2147204224,2956,3,13,41046
1360534330,5807,349.7600097656250000,9.9329996109008790,34.1110000610351560,183.2984008789062500,494.9598083496094000,9.9298257827758790,37.8185005187988300,49,104,90,79,72,14912,2147737161,2147426011,2148003108,2147871616,2147611300,2147096722,2148227044,2147206208,193,3,14,14377
1360534442,5804,338.5799865722656000,10.4163999557495120,34.1232986450195300,190.3840942382812500,479.6234130859375000,10.4112796783447270,37.0900001525878900,49,107,89,79,70,14910,2147732096,2147429778,2148005686,2147872630,2147612041,2147107300,2148223241,2147204480,261,4,13,40655
1360534551,5808,327.8500061035156000,10.5703001022338870,34.1295013427734400,194.0661926269531200,474.7341918945312500,10.5644502639770500,36.7716598510742200,49,106,89,81,71,14909,2147733522,2147426048,2148009462,2147870464,2147608027,2147099858,2148224630,2147202368,3434,4,13,25993
1360534660,5809,317.3999938964844000,11.0762996673583980,34.1479988098144500,197.1320037841797000,459.0329895019531000,11.0553102493286130,36.3184700012207000,48,105,89,81,71,14910,2147736265,2147427739,2148014747,2147869275,2147608054,2147106230,2148222290,2147207113,3567,3,14,13437
1360534783,5810,306.2300109863281000,11.3502998352050780,34.1660995483398440,201.4613952636718800,449.1467895507812500,11.3636302947998050,35.8893890380859400,49,106,86,80,70,14910,2147730770,2147427821,2148018432,2147873462,2147603675,2147111469,2148226541,2147206555,795,3,14,35774
1360534914,5807,295.2900085449219000,12.0198001861572270,34.1870994567871100,206.3928070068359400,427.9092102050781000,12.0241298675537110,35.2513389587402340,48,104,88,81,70,14910,2147730697,2147429714,2148026825,2147872667,2147602752,2147118674,2148232100,2147205357,1186,3,14,6832
1360535047,5810,284.0000000000000000,12.1247997283935550,34.1716003417968750,209.3569030761718800,424.9039001464844000,12.1174001693725590,35.0296516418457000,49,103,89,79,70,14909,2147725046,2147438189,2148036406,2147873956,2147601444,2147120246,2148228608,2147211501,2157,3,13,54775
1360535178,5808,273.2399902343750000,12.8833999633789060,34.1955986022949200,209.0581054687500000,400.2243957519531000,12.8817100524902340,34.6590118408203100,48,101,89,80,68,14913,2147726317,2147443254,2148050605,2147871012,2147600832,2147120758,2148229275,2147207241,2615,4,14,34963
1360535364,5808,259.6700134277344000,13.6965999603271480,34.2804985046386700,212.1553039550781200,373.3810119628906000,13.7100200653076170,34.0675315856933600,48,107,86,80,68,14908,2147723355,2147455616,2148082806,2147869092,2147595474,2147139108,2148248548,2147212873,414,3,13,54256
1360535498,5809,247.9900054931640600,14.5753002166748050,34.3482017517089840,210.1636047363281200,346.2213134765625000,14.5453701019287110,33.7703590393066400,49,103,88,79,67,14904,2147723547,2147452836,2148070784,2147870253,2147589586,2147149796,2148231533,2147211410,3245,3,14,65251
1360535618,5808,237.3200073242187500,15.0947999954223630,34.4179000854492200,211.5870971679687500,328.2387084960937500,15.0972099304199220,33.4225082397460940,48,102,86,80,67,14907,2147719680,2147450468,2148048530,2147872301,2147588589,2147148205,2148219986,2147211245,165,2,14,41477
1360535752,5805,226.1300048828125000,16.1168994903564450,34.5477981567382800,215.6947021484375000,295.5678100585937500,16.0978107452392580,32.7181701660156250,49,103,89,79,66,14902,2147729005,2147537609,2148250514,2147872246,2147590793,2147205485,2148316132,2147222189,2275,3,14,5902
1360535883,5810,215.8300018310547000,16.7931003570556640,34.6381988525390600,217.5852050781250000,273.2544860839844000,16.7800807952880860,32.2974205017089840,49,101,88,80,66,14901,2147740470,2147599122,2148356470,2147872694,2147587072,2147251803,2148362285,2147223570,1532,3,14,25353
1360536027,5809,204.6300048828125000,17.4279994964599600,34.7285003662109400,218.1748962402343800,251.4691009521484400,17.4456691741943360,31.9590091705322270,48,103,86,80,65,14897,2147764013,2147694948,2148508937,2147874596,2147595940,2147309513,2148439542,2147227254,329,3,15,14902
1360536114,5810,197.9799957275390600,17.9199008941650400,34.7933998107910160,217.6557006835937500,235.9922943115234400,17.9183406829834000,31.7710399627685550,49,101,89,80,63,14898,2147784329,2147763328,2148621312,2147873782,2147601042,2147357494,2148493348,2147232182,3032,2,15,29678
1360536168,5808,194.2700042724609400,18.1523990631103500,34.8268013000488300,218.7570953369140600,228.3152008056640600,18.1527900695800780,31.6066207885742200,49,103,87,79,65,14899,2147802130,2147809618,2148694061,2147873782,2147609088,2147386953,2148528896,2147236297,2530,2,15,13927
1360536233,5808,190.0800018310547000,18.4890003204345700,34.8740005493164060,219.0603027343750000,218.3977050781250000,18.4556503295898440,31.4542198181152340,50,104,89,81,66,14891,2147828233,2147890194,2148826806,2147873755,2147618432,2147436480,2148593426,2147240502,2367,2,15,37061
1360536307,5811,186.0099945068359400,18.7117996215820300,34.9077987670898440,219.4105072021484400,209.6320953369140600,18.7233600616455080,31.3161602020263670,50,102,91,79,64,14892,2147813522,2147778166,2148589522,2147874934,2147610898,2147379794,2148479762,2147233563,2506,2,15,56445
1360536383,5811,182.7899932861328000,18.9720001220703120,34.9454002380371100,220.6302032470703000,202.7151031494140600,18.9346408843994140,31.1585292816162100,50,103,87,80,64,14893,2147886683,2148043922,2149066148,2147875273,2147642340,2147547501,2148708964,2147251382,2556,2,15,19877
1360536481,5807,179.0500030517578000,19.2262992858886720,34.9813003540039060,221.0655059814453000,193.6555938720703000,19.2114105224609380,31.0133094787597660,50,104,88,82,64,14889,2147762285,2147588123,2148220516,2147872356,2147589165,2147270646,2148292818,2147219922,2710,2,16,49216
1360536603,5806,174.6999969482422000,19.4694004058837900,35.0155982971191400,221.8925933837890600,185.8540954589843800,19.4498100280761720,30.8656692504882800,53,103,87,81,63,14888,2147959250,2148175488,2149253494,2147878893,2147676132,2147637778,2148808493,2147261248,2184,2,15,23663
1360536701,5810,170.9900054931640600,19.6340999603271500,35.0415992736816400,222.8246002197265600,180.4064025878906200,19.6163196563720700,30.7447605133056640,54,102,89,81,63,14888,2148002112,2148252525,2149368658,2147874806,2147694848,2147690578,2148880996,2147266340,2437,2,15,30851
1360536810,5807,166.7100067138672000,19.8167991638183600,35.0643005371093750,223.4741058349609400,174.1864929199218800,19.8064804077148440,30.6290092468261720,53,106,88,80,64,14890,2148065993,2148382482,2149565595,2147879268,2147723730,2147779940,2148980178,2147273618,2668,2,15,16357
1360536917,5808,161.8899993896484400,20.0475997924804700,35.0896987915039060,224.2590942382812500,167.3675994873047000,20.0150203704834000,30.4981803894042970,55,103,85,80,63,14883,2148164525,2148548178,2149810194,2147879387,2147770880,2147888265,2149103497,2147283730,2236,2,15,42500
1360536982,5809,158.2400054931640600,20.2924995422363280,35.1203002929687500,224.1280059814453000,159.1242065429687500,20.2672195434570300,30.3957004547119140,61,108,89,81,62,14877,2148265078,2148719707,2150059282,2147882084,2147811840,2147999881,2149230656,2147292598,2537,2,15,22357
1360537058,5807,154.2200012207031200,20.4374008178710940,35.1394996643066400,224.3706054687500000,153.6470031738281200,20.4348602294921880,30.3111000061035160,63,109,90,82,63,14873,2148263780,2148649901,2149895094,2147882267,2147820214,2147972681,2149161444,2147286838,1830,2,15,32938
1360537134,5809,150.5000000000000000,20.6679000854492200,35.1618003845214840,224.1775970458984400,146.7967987060547000,20.6446094512939450,30.2306194305419920,69,113,86,81,62,14869,2148542701,2149179382,2150721746,2147884452,2147942820,2148270811,2149534866,2147318326,869,2,15,4292
1360537223,5810,146.9100036621093800,20.7872009277343750,35.1778984069824200,224.3551025390625000,142.5827026367187500,20.7736797332763670,30.1663703918457030,74,113,89,81,62,14861,2148802496,2149600374,2151328493,2147891538,2148049856,2148495113,2149790290,2147338870,1008,2,16,9269
1360537332,5808,143.1300048828125000,20.9248008728027340,35.1926002502441400,224.3070983886718800,138.5276947021484400,20.8979301452636720,30.1155490875244140,83,120,89,81,60,14853,2148189019,2148265444,2149130569,2147880768,2147784438,2147705883,2148755648,2147261723,633,2,15,51309
1360537452,5806,139.0500030517578000,20.9708003997802730,35.1968994140625000,224.9219970703125000,136.1246032714843800,20.9715690612792970,30.0535507202148440,85,115,87,83,61,14853,2149356918,2150347565,2152288530,2147900827,2148293933,2148917942,2150260900,2147378221,886,2,15,38344
1360537552,5810,134.7299957275390600,21.1961002349853500,35.2160987854003900,225.1600952148437500,129.1318969726562500,21.1859607696533200,29.9502601623535160,89,118,91,83,61,14838,2148750198,2149068452,2150193554,2147889060,2148033609,2148170898,2149276242,2147302555,1707,2,15,19097
1360537617,5806,131.3200073242187500,21.3535003662109380,35.2280006408691400,225.5655059814453000,124.1744003295898400,21.3380203247070300,29.8658199310302730,96,122,88,83,62,14828,2150192137,2151412361,2153640329,2147919597,2148646875,2149436434,2150810267,2147427026,1737,2,15,23943
1360537693,5809,127.5000000000000000,21.4850006103515620,35.2421989440918000,226.0722961425781200,119.6732025146484400,21.4761505126953120,29.7822303771972660,105,121,90,83,62,14822,2150769929,2152128228,2154589878,2147934208,2148888493,2149799058,2151215570,2147458514,493,2,16,4255
1360537780,5810,123.4400024414062500,21.7495002746582030,35.2453994750976560,226.4434051513672000,111.5718002319336000,21.7248992919921880,29.6591300964355470,116,128,88,83,63,14799,2151567597,2153104969,2155775616,2147955693,2149206930,2150218249,2151668864,2147502381,2493,2,15,16830
1360537870,5810,120.0699996948242200,21.8621006011962900,35.2546005249023440,227.7344970703125000,107.4889984130859400,21.8503398895263670,29.5432090759277340,127,127,90,83,61,14789,2152336036,2154035629,2156832182,2147967881,2149510006,2150589156,2152023451,2147536960,1389,2,16,4297
1360538001,5809,116.3700027465820300,22.0601005554199220,35.2663993835449200,229.0476989746093800,101.4582977294921900,22.0357093811035160,29.4021301269531250,134,129,88,83,61,14771,2153724992,2155705270,2158783140,2147995675,2150022838,2151220662,2152693257,2147601325,1072,2,16,41465
1360538189,5808,111.7099990844726600,22.5569000244140620,35.2854995727539060,231.0944976806640600,85.3360671997070300,22.5319004058837900,29.0978908538818360,154,130,92,84,62,14750,2155999606,2158360777,2161766509,2148055104,2150863908,2152199442,2153687606,2147701760,750,2,16,48254
1360538276,5806,107.7900009155273400,22.6310997009277340,35.2851982116699200,232.1947021484375000,82.6279678344726600,22.6153297424316400,29.0115394592285160,161,135,92,84,60,14740,2158504457,2161473289,2165230546,2148116288,2151853028,2153418157,2154935387,2147826843,1138,2,16,24429
1360538363,5806,104.0800018310546900,22.8090991973876950,35.2929000854492200,233.0617980957031200,76.9916610717773400,22.7890796661376950,28.8992805480957030,162,133,93,84,61,14732,2160282934,2163442669,2167006070,2148159734,2152589668,2154172032,2155579346,2147903378,1197,2,16,21085
1360538473,5808,100.7300033569336000,23.0480003356933600,35.3064994812011700,234.2126007080078000,69.6124420166015600,23.0167407989501950,28.7520999908447270,150,127,91,85,60,14727,2163262198,2166914038,2170238052,2148229897,2153887433,2155573997,2156816045,2148033901,1545,2,16,12171
1360538527,5806,98.9499969482421900,23.1853008270263670,35.3138999938964840,234.6972961425781200,65.0674972534179700,23.1570701599121100,28.6721801757812500,134,127,90,85,59,14736,2165929307,2170090112,2173462317,2148315483,2155194678,2157090176,2158245430,2148182546,1725,2,16,63473
1360538592,5810,97.1699981689453100,23.2504005432128900,35.3221015930175800,235.6461944580078000,62.2696113586425800,23.2434997558593750,28.5931892395019530,127,127,89,83,58,14757,2167998381,2172313810,2175307675,2148363035,2156533019,2158551744,2159434880,2148304109,1432,1,16,31237
1360538668,5806,95.4300003051757800,23.4116992950439450,35.3212013244628900,236.7333984375000000,57.3872413635253900,23.3943996429443360,28.4821090698242200,94,120,91,83,58,14783,2170411702,2174974720,2177978898,2148427145,2157896612,2159997394,2160525842,2148409316,806,1,16,24047
1360538779,5806,92.4499969482421900,23.4706001281738280,35.3117980957031250,239.4817047119140600,55.1792297363281250,23.4626808166503900,28.3292503356933600,80,125,91,82,58,14787,2172751698,2177370688,2180249929,2148526848,2160774683,2163188388,2163062171,2148622454,3454,2,16,28918
1360538833,5805,90.0199966430664000,23.4680004119873050,35.3008995056152340,240.7444000244140600,55.1029205322265600,23.4650402069091800,28.2715892791748050,78,122,91,84,56,14791,2175494409,2180541257,2183392484,2148676480,2163323931,2165800082,2165035867,2148807872,2660,2,16,28325
1360538887,5818,87.4000015258789000,23.4829998016357420,35.3027000427246100,241.5668029785156200,54.6015396118164060,23.4805507659912100,28.2284393310546880,76,122,92,84,57,14789,2179174052,2184765796,2187588041,2148850605,2166555995,2169328932,2167666596,2149055707,2703,1,16,51568
1360538941,5814,84.7500000000000000,23.4860992431640620,35.3008003234863300,241.8793945312500000,54.4245109558105500,23.4860191345214840,28.2122306823730470,74,122,91,84,57,14787,2183947291,2190165851,2192855149,2149101266,2170803812,2174011830,2171362468,2149392438,2697,1,16,3036
1360538995,5809,82.0500030517578100,23.4965000152587900,35.2925987243652340,242.2886047363281200,54.1135406494140600,23.4956398010253900,28.1901702880859380,75,122,90,85,57,14787,2189398747,2196429449,2199125293,2149477165,2175464000,2178962953,2175166418,2149767972,2790,2,16,7394
1360539049,5808,79.3399963378906200,23.4988994598388670,35.2921981811523440,242.5084991455078000,53.9709396362304700,23.5000591278076170,28.1784801483154300,75,122,91,84,59,14787,2193468096,2200565860,2202898907,2149722441,2179469248,2183363776,2178460498,2150045065,2916,2,16,36236
1360539106,5809,76.3600006103515600,23.5102996826171880,35.2872009277343750,242.5334930419922000,53.5943603515625000,23.5117092132568360,28.1727600097656250,72,121,92,86,58,14780,2198360987,2205745590,2207496868,2150046619,2184151058,2188031177,2181741101,2150395300,3037,1,16,62876
1360539160,5807,73.4599990844726600,23.5638008117675780,35.2946014404296900,242.6040039062500000,51.9423217773437500,23.5628204345703120,28.1491203308105470,72,122,92,84,56,14780,2207982016,2216979766,2219185856,2150862308,2191700041,2196273408,2188202130,2151045924,3069,2,16,10020
1360539214,5808,70.4899978637695300,23.5862007141113280,35.2933006286621100,242.7566986083984400,51.2281188964843750,23.5849208831787100,28.1335105895996100,69,122,93,84,57,14772,2173245769,2174234121,2172814244,2148961792,2167596781,2167657965,2163437065,2148697581,3152,2,16,20088
1360539268,5807,67.5199966430664000,23.7653007507324220,35.3075981140136700,242.1546020507812500,46.1338081359863300,23.7426300048828120,28.0968208312988280,73,122,93,84,56,14770,2219178130,2228610633,2229842386,2151997385,2202372013,2207091126,2195896274,2151873673,3410,2,16,11337
1360539322,5805,64.5800018310546900,23.7812995910644530,35.3117980957031250,242.0729064941406200,44.8457489013671900,23.7825202941894530,28.0844993591308600,70,121,93,83,55,14770,2229224923,2238961024,2239787282,2153442587,2211332845,2216581266,2203000411,2152695433,3584,1,16,1450
1360539376,5805,61.6300010681152340,23.7978992462158200,35.3124008178710940,242.0397949218750000,44.2540893554687500,23.8008499145507800,28.0786590576171880,65,120,90,85,57,14765,2182858578,2183430610,2180803401,2149951067,2176304804,2175789467,2168743277,2149326363,192,2,16,19022
1360539433,5811,58.5000000000000000,23.8101005554199220,35.3125000000000000,242.0413055419922000,43.9192085266113300,23.8112297058105470,28.0744209289550780,66,121,91,84,57,14766,2233678939,2242286290,2241887332,2154919405,2213038948,2216335972,2200983926,2152941074,411,2,16,19190
1360539487,5807,55.6399993896484400,23.9123001098632800,35.3171005249023440,241.6524047851562500,40.4385910034179700,23.9190902709960940,28.0485191345214840,63,121,91,85,58,14769,2208017782,2210570569,2207349760,2152665088,2199139099,2199769600,2186773056,2151344877,504,1,16,63385
1360539541,5806,53.4000015258789060,24.0067005157470700,35.3242988586425800,241.1672058105468800,37.5491409301757800,24.0086708068847660,28.0345001220703120,62,121,92,85,56,14769,2245344886,2252361325,2250050752,2157224374,2227691776,2230396224,2210477494,2154172242,75,2,16,28078
1360539595,5808,51.8400001525878900,24.1858005523681640,35.3292999267578100,240.3395996093750000,31.9094905853271500,24.1836490631103500,28.0015602111816400,58,119,91,85,56,14769,2198166427,2197741577,2193043821,2151622802,2191811126,2190334381,2178229467,2150480548,3341,1,16,41852
1360539772,5810,50.3499984741210940,24.4643993377685550,35.3308982849121100,239.2568969726562500,22.6398296356201170,24.4715995788574220,27.9353008270263670,57,119,91,84,58,14769,2273891986,2284054601,2282786541,2161955894,2257638866,2261659510,2232980233,2156917686,3406,2,16,4476
1360539848,5809,47.8600006103515600,24.5627994537353500,35.3278007507324200,238.6519012451172000,19.6740608215332030,24.5638198852539060,27.9257793426513670,55,117,89,85,55,14770,2276742976,2286815332,2284982107,2163280539,2271191945,2274651392,2241104374,2157705801,3092,0,16,27943
1360539902,5818,46.0099983215332000,24.5758991241455080,35.3278007507324200,238.5451965332031200,19.0045108795166000,24.5846500396728500,27.9224395751953120,55,115,90,84,55,14776,2281554304,2291585088,2289646290,2165798189,2278370185,2279999158,2243822226,2158604470,2665,1,16,49865
1360539956,5806,43.8499984741210940,24.5862998962402340,35.3278007507324200,238.3451995849609400,18.8991794586181640,24.5879192352294920,27.9299793243408200,55,120,89,83,57,14768,2290123949,2301719990,2300279643,2168109915,2287771529,2288531218,2248921408,2159480603,2519,1,16,22633
1360540010,5808,41.6100006103515600,24.6061992645263670,35.3274993896484400,238.2882995605468800,18.2241191864013670,24.6089305877685550,27.9242095947265620,55,119,91,83,56,14775,2299145883,2311223506,2310162816,2172383058,2303807588,2303406464,2258404909,2161015442,2401,1,16,34368
1360540088,5808,38.1399993896484400,24.6056995391845700,35.3280982971191400,238.2454071044922000,18.3157806396484380,24.6060791015625000,27.9273204803466800,54,117,90,84,62,14776,2318006262,2332505828,2332866130,2181746742,2326783405,2324128128,2271275785,2163950619,1675,2,17,32697
1360540142,5803,34.8499984741210940,24.6208992004394530,35.3293991088867200,238.3831024169922000,17.8838291168212900,24.6195106506347660,27.9155998229980470,52,115,89,86,61,14772,2328041316,2342137590,2342350491,2187129408,2345250550,2341099456,2281819218,2166049874,1751,2,18,44414
1360540196,5803,31.9300003051757800,24.6222991943359380,35.3294982910156250,238.3713989257812500,17.6800594329834000,24.6258506774902340,27.9137001037597660,53,116,93,84,59,14780,2348313179,2365121426,2367597833,2197366281,2370968009,2366041883,2299066550,2169159259,1856,2,17,43013
1360540250,5806,29.5599994659423830,24.6240005493164060,35.3289985656738300,238.4902038574218800,17.5416793823242200,24.6301593780517580,27.9066791534423830,53,116,91,83,54,14780,2353955218,2370200493,2374026157,2208497051,2383918820,2376861586,2305956589,2172838811,1708,2,16,46342
1360540304,5816,26.6800003051757800,24.6259994506835940,35.3292999267578100,238.5285034179687500,17.5053901672363280,24.6312904357910160,27.9044303894042970,52,116,94,86,56,14776,2366062363,2381647670,2385162944,2216478125,2402745590,2393327122,2316326345,2174972361,1820,3,16,43073
1360540358,5810,23.8600006103515620,24.6240005493164060,35.3293991088867200,238.6463928222656200,17.5866298675537100,24.6287593841552730,27.9002799987792970,51,116,91,82,57,14778,2376223835,2391025929,2397056256,2234194971,2425044763,2413182902,2329870893,2180167424,2315,1,17,27988
